Datum;Richtung;Anzahl Messungen;Anzahl Fahrzeuge;Durchschnittsgeschwindigkeit;Höchstgeschwindigkeit
02/11/2020 12:00;1;64;64;38.81;61.00
02/11/2020 12:30;1;77;77;38.31;51.00
02/11/2020 13:00;1;75;75;37.13;60.00
02/11/2020 13:30;1;97;97;37.14;59.00
02/11/2020 14:00;1;69;69;38.48;56.00
02/11/2020 14:30;1;71;71;40.20;69.00
02/11/2020 15:00;1;70;70;37.41;49.00
02/11/2020 15:30;1;75;75;37.96;65.00
02/11/2020 16:00;1;75;75;38.52;51.00
02/11/2020 16:30;1;101;101;37.41;54.00
02/11/2020 17:00;1;99;99;36.24;64.00
02/11/2020 17:30;1;85;85;36.88;50.00
02/11/2020 18:00;1;75;75;37.51;68.00
02/11/2020 18:30;1;57;57;39.04;54.00
02/11/2020 19:00;1;45;45;39.00;60.00
02/11/2020 19:30;1;38;38;37.42;60.00
02/11/2020 20:00;1;29;29;37.03;58.00
02/11/2020 20:30;1;26;26;38.77;59.00
02/11/2020 21:00;1;23;23;40.48;71.00
02/11/2020 21:30;1;15;15;37.47;43.00
02/11/2020 22:00;1;13;13;36.77;45.00
02/11/2020 22:30;1;8;8;34.75;45.00
02/11/2020 23:00;1;9;9;35.22;52.00
02/11/2020 23:30;1;8;8;48.12;68.00
03/11/2020 00:00;1;3;3;31.67;42.00
03/11/2020 00:30;1;3;3;55.33;64.00
03/11/2020 01:00;1;2;2;37.00;45.00
03/11/2020 01:30;1;4;4;40.75;43.00
03/11/2020 03:00;1;1;1;40.00;40.00
03/11/2020 03:30;1;6;6;37.83;41.00
03/11/2020 04:00;1;2;2;47.00;49.00
03/11/2020 04:30;1;6;6;48.83;56.00
03/11/2020 05:00;1;12;12;38.75;52.00
03/11/2020 05:30;1;25;25;40.28;50.00
03/11/2020 06:00;1;33;33;39.24;58.00
03/11/2020 06:30;1;69;69;38.28;66.00
03/11/2020 07:00;1;89;89;35.98;48.00
03/11/2020 07:30;1;106;106;35.02;49.00
03/11/2020 08:00;1;123;123;36.31;57.00
03/11/2020 08:30;1;94;94;37.30;55.00
03/11/2020 09:00;1;80;80;37.35;48.00
03/11/2020 09:30;1;80;80;34.35;49.00
03/11/2020 10:00;1;80;80;34.89;50.00
03/11/2020 10:30;1;76;76;34.97;48.00
03/11/2020 11:00;1;74;74;36.68;47.00
03/11/2020 11:30;1;79;79;37.65;52.00
03/11/2020 12:00;1;77;77;38.56;54.00
03/11/2020 12:30;1;84;84;35.56;54.00
03/11/2020 13:00;1;74;74;35.27;52.00
03/11/2020 13:30;1;75;75;37.13;49.00
03/11/2020 14:00;1;62;62;37.06;58.00
03/11/2020 14:30;1;88;88;37.03;50.00
03/11/2020 15:00;1;91;91;35.03;46.00
03/11/2020 15:30;1;102;102;36.43;49.00
03/11/2020 16:00;1;83;83;37.18;51.00
03/11/2020 16:30;1;90;90;35.79;52.00
03/11/2020 17:00;1;89;89;37.08;53.00
03/11/2020 17:30;1;67;67;34.61;47.00
03/11/2020 18:00;1;74;74;35.74;53.00
03/11/2020 18:30;1;65;65;38.23;60.00
03/11/2020 19:00;1;35;35;39.14;64.00
03/11/2020 19:30;1;38;38;35.95;54.00
03/11/2020 20:00;1;27;27;41.04;60.00
03/11/2020 20:30;1;32;32;38.12;67.00
03/11/2020 21:00;1;29;29;39.17;54.00
03/11/2020 21:30;1;18;18;37.00;57.00
03/11/2020 22:00;1;22;22;37.00;52.00
03/11/2020 22:30;1;9;9;39.22;79.00
03/11/2020 23:00;1;13;13;36.69;55.00
03/11/2020 23:30;1;14;14;36.71;43.00
04/11/2020 00:00;1;7;7;47.43;64.00
04/11/2020 00:30;1;2;2;33.00;34.00
04/11/2020 01:00;1;1;1;47.00;47.00
04/11/2020 01:30;1;3;3;44.67;56.00
04/11/2020 02:00;1;2;2;47.00;49.00
04/11/2020 03:00;1;2;2;60.50;79.00
04/11/2020 03:30;1;8;8;38.62;50.00
04/11/2020 04:00;1;3;3;46.33;52.00
04/11/2020 04:30;1;16;16;43.94;59.00
04/11/2020 05:00;1;10;10;43.50;60.00
04/11/2020 05:30;1;32;32;39.19;60.00
04/11/2020 06:00;1;28;28;40.79;55.00
04/11/2020 06:30;1;84;84;37.93;53.00
04/11/2020 07:00;1;99;99;37.71;71.00
04/11/2020 07:30;1;121;121;37.09;71.00
04/11/2020 08:00;1;102;102;35.17;52.00
04/11/2020 08:30;1;102;102;36.40;54.00
04/11/2020 09:00;1;88;88;37.03;60.00
04/11/2020 09:30;1;82;82;37.07;50.00
04/11/2020 10:00;1;88;88;36.34;44.00
04/11/2020 10:30;1;98;98;37.51;52.00
04/11/2020 11:00;1;76;76;35.68;49.00
04/11/2020 11:30;1;79;79;37.68;50.00
04/11/2020 12:00;1;86;86;37.66;52.00
04/11/2020 12:30;1;74;74;38.45;53.00
04/11/2020 13:00;1;96;96;34.78;55.00
04/11/2020 13:30;1;88;88;37.72;56.00
04/11/2020 14:00;1;85;85;37.96;55.00
04/11/2020 14:30;1;71;71;35.37;51.00
04/11/2020 15:00;1;73;73;34.67;50.00
04/11/2020 15:30;1;81;81;36.69;51.00
04/11/2020 16:00;1;80;80;37.02;60.00
04/11/2020 16:30;1;86;86;36.31;49.00
04/11/2020 17:00;1;81;81;36.12;47.00
04/11/2020 17:30;1;66;66;35.91;50.00
04/11/2020 18:00;1;69;69;36.96;49.00
04/11/2020 18:30;1;63;63;38.87;56.00
04/11/2020 19:00;1;41;41;38.37;67.00
04/11/2020 19:30;1;31;31;37.90;66.00
04/11/2020 20:00;1;29;29;37.21;51.00
04/11/2020 20:30;1;23;23;34.48;45.00
04/11/2020 21:00;1;28;28;40.75;92.00
04/11/2020 21:30;1;17;17;40.53;61.00
04/11/2020 22:00;1;11;11;36.45;47.00
04/11/2020 22:30;1;9;9;36.22;48.00
04/11/2020 23:00;1;12;12;36.67;45.00
04/11/2020 23:30;1;8;8;41.88;50.00
05/11/2020 00:00;1;5;5;38.40;44.00
05/11/2020 00:30;1;2;2;39.50;43.00
05/11/2020 01:00;1;1;1;39.00;39.00
05/11/2020 01:30;1;3;3;38.00;41.00
05/11/2020 02:00;1;1;1;45.00;45.00
05/11/2020 02:30;1;2;2;46.00;49.00
05/11/2020 03:00;1;2;2;44.50;46.00
05/11/2020 03:30;1;8;8;42.50;46.00
05/11/2020 04:00;1;2;2;44.00;50.00
05/11/2020 04:30;1;10;10;42.20;50.00
05/11/2020 05:00;1;9;9;39.78;52.00
05/11/2020 05:30;1;32;32;38.41;53.00
05/11/2020 06:00;1;33;33;37.61;51.00
05/11/2020 06:30;1;73;73;38.85;50.00
05/11/2020 07:00;1;90;90;36.38;50.00
05/11/2020 07:30;1;117;117;38.27;53.00
05/11/2020 08:00;1;106;106;37.24;56.00
05/11/2020 08:30;1;85;85;36.39;49.00
05/11/2020 09:00;1;78;78;36.74;49.00
05/11/2020 09:30;1;101;101;36.82;53.00
05/11/2020 10:00;1;95;95;37.25;53.00
05/11/2020 10:30;1;74;74;36.50;58.00
05/11/2020 11:00;1;78;78;37.99;48.00
05/11/2020 11:30;1;72;72;38.49;48.00
05/11/2020 12:00;1;68;68;36.69;50.00
05/11/2020 12:30;1;64;64;37.42;62.00
05/11/2020 13:00;1;66;66;38.02;53.00
05/11/2020 13:30;1;80;80;36.84;49.00
05/11/2020 14:00;1;86;86;37.02;60.00
05/11/2020 14:30;1;82;82;36.84;70.00
05/11/2020 15:00;1;82;82;36.51;62.00
05/11/2020 15:30;1;66;66;38.32;50.00
05/11/2020 16:00;1;103;103;36.33;56.00
05/11/2020 16:30;1;99;99;37.81;75.00
05/11/2020 17:00;1;78;78;35.45;57.00
05/11/2020 17:30;1;77;77;36.13;61.00
05/11/2020 18:00;1;77;77;36.08;51.00
05/11/2020 18:30;1;45;45;36.76;48.00
05/11/2020 19:00;1;42;42;37.07;51.00
05/11/2020 19:30;1;48;48;38.29;59.00
05/11/2020 20:00;1;33;33;37.00;52.00
05/11/2020 20:30;1;27;27;37.85;48.00
05/11/2020 21:00;1;31;31;39.32;50.00
05/11/2020 21:30;1;15;15;40.40;65.00
05/11/2020 22:00;1;19;19;39.26;66.00
05/11/2020 22:30;1;19;19;36.42;65.00
05/11/2020 23:00;1;11;11;37.09;42.00
05/11/2020 23:30;1;11;11;40.27;48.00
06/11/2020 00:00;1;3;3;34.00;44.00
06/11/2020 00:30;1;3;3;41.67;53.00
06/11/2020 01:00;1;3;3;30.67;44.00
06/11/2020 01:30;1;2;2;35.50;37.00
06/11/2020 02:30;1;6;6;35.50;46.00
06/11/2020 03:00;1;1;1;43.00;43.00
06/11/2020 03:30;1;9;9;40.89;52.00
06/11/2020 04:00;1;5;5;51.60;66.00
06/11/2020 04:30;1;15;15;48.20;70.00
06/11/2020 05:00;1;6;6;42.00;48.00
06/11/2020 05:30;1;21;21;42.95;61.00
06/11/2020 06:00;1;45;45;38.02;55.00
06/11/2020 06:30;1;78;78;37.99;56.00
06/11/2020 07:00;1;87;87;37.74;49.00
06/11/2020 07:30;1;135;135;36.76;54.00
06/11/2020 08:00;1;114;114;36.91;51.00
06/11/2020 08:30;1;92;92;37.02;48.00
06/11/2020 09:00;1;90;90;35.68;52.00
06/11/2020 09:30;1;88;88;36.36;50.00
06/11/2020 10:00;1;98;98;37.06;50.00
06/11/2020 10:30;1;83;83;36.47;50.00
06/11/2020 11:00;1;87;87;37.05;52.00
06/11/2020 11:30;1;85;85;38.38;53.00
06/11/2020 12:00;1;103;103;37.48;51.00
06/11/2020 12:30;1;105;105;38.33;50.00
06/11/2020 13:00;1;63;63;37.06;56.00
06/11/2020 13:30;1;80;80;38.46;62.00
06/11/2020 14:00;1;69;69;37.49;49.00
06/11/2020 14:30;1;108;108;37.01;49.00
06/11/2020 15:00;1;80;80;38.00;51.00
06/11/2020 15:30;1;86;86;38.85;59.00
06/11/2020 16:00;1;87;87;34.92;46.00
06/11/2020 16:30;1;85;85;36.51;57.00
06/11/2020 17:00;1;102;102;33.62;50.00
06/11/2020 17:30;1;79;79;36.92;54.00
06/11/2020 18:00;1;66;66;34.58;44.00
06/11/2020 18:30;1;64;64;35.00;50.00
06/11/2020 19:00;1;57;57;37.75;50.00
06/11/2020 19:30;1;52;52;38.44;51.00
06/11/2020 20:00;1;42;42;38.19;73.00
06/11/2020 20:30;1;32;32;39.56;70.00
06/11/2020 21:00;1;31;31;37.42;49.00
06/11/2020 21:30;1;25;25;41.40;59.00
06/11/2020 22:00;1;17;17;37.24;47.00
06/11/2020 22:30;1;8;8;35.25;44.00
06/11/2020 23:00;1;11;11;43.91;71.00
06/11/2020 23:30;1;12;12;45.75;67.00
07/11/2020 00:00;1;12;12;43.67;72.00
07/11/2020 00:30;1;5;5;34.80;40.00
07/11/2020 01:00;1;2;2;49.50;51.00
07/11/2020 01:30;1;5;5;39.40;48.00
07/11/2020 02:00;1;3;3;43.33;48.00
07/11/2020 02:30;1;6;6;50.17;57.00
07/11/2020 03:00;1;3;3;52.00;81.00
07/11/2020 03:30;1;10;10;43.00;65.00
07/11/2020 04:00;1;3;3;49.33;60.00
07/11/2020 04:30;1;3;3;43.33;50.00
07/11/2020 05:00;1;4;4;37.25;58.00
07/11/2020 05:30;1;14;14;38.00;47.00
07/11/2020 06:00;1;7;7;43.71;60.00
07/11/2020 06:30;1;26;26;39.42;56.00
07/11/2020 07:00;1;26;26;38.42;48.00
07/11/2020 07:30;1;34;34;36.41;44.00
07/11/2020 08:00;1;56;56;38.25;52.00
07/11/2020 08:30;1;46;46;38.80;53.00
07/11/2020 09:00;1;69;69;38.64;61.00
07/11/2020 09:30;1;59;59;38.44;48.00
07/11/2020 10:00;1;56;56;37.46;46.00
07/11/2020 10:30;1;84;84;35.08;48.00
07/11/2020 11:00;1;77;77;37.64;50.00
07/11/2020 11:30;1;94;94;37.99;51.00
07/11/2020 12:00;1;70;70;38.07;55.00
07/11/2020 12:30;1;69;69;38.75;54.00
07/11/2020 13:00;1;81;81;39.14;66.00
07/11/2020 13:30;1;77;77;38.97;53.00
07/11/2020 14:00;1;76;76;37.51;50.00
07/11/2020 14:30;1;76;76;38.33;56.00
07/11/2020 15:00;1;71;71;39.54;53.00
07/11/2020 15:30;1;69;69;35.81;44.00
07/11/2020 16:00;1;51;51;36.35;49.00
07/11/2020 16:30;1;60;60;37.75;53.00
07/11/2020 17:00;1;98;98;36.10;54.00
07/11/2020 17:30;1;71;71;37.65;59.00
07/11/2020 18:00;1;60;60;37.88;55.00
07/11/2020 18:30;1;65;65;37.31;51.00
07/11/2020 19:00;1;37;37;36.11;54.00
07/11/2020 19:30;1;35;35;38.11;51.00
07/11/2020 20:00;1;35;35;39.46;52.00
07/11/2020 20:30;1;45;45;38.47;48.00
07/11/2020 21:00;1;35;35;40.91;56.00
07/11/2020 21:30;1;18;18;38.78;48.00
07/11/2020 22:00;1;17;17;38.00;64.00
07/11/2020 22:30;1;17;17;35.00;50.00
07/11/2020 23:00;1;15;15;34.73;43.00
07/11/2020 23:30;1;21;21;39.05;48.00
08/11/2020 00:00;1;15;15;36.80;53.00
08/11/2020 00:30;1;7;7;45.43;65.00
08/11/2020 01:00;1;8;8;40.12;71.00
08/11/2020 01:30;1;7;7;46.14;64.00
08/11/2020 02:00;1;3;3;38.00;43.00
08/11/2020 02:30;1;5;5;47.60;51.00
08/11/2020 03:00;1;6;6;39.83;52.00
08/11/2020 03:30;1;3;3;41.67;53.00
08/11/2020 04:00;1;2;2;39.50;43.00
08/11/2020 04:30;1;1;1;34.00;34.00
08/11/2020 05:00;1;1;1;52.00;52.00
08/11/2020 05:30;1;3;3;36.67;39.00
08/11/2020 06:00;1;3;3;31.00;35.00
08/11/2020 06:30;1;6;6;39.33;45.00
08/11/2020 07:00;1;5;5;36.00;41.00
08/11/2020 07:30;1;5;5;41.60;53.00
08/11/2020 08:00;1;16;16;39.88;51.00
08/11/2020 08:30;1;13;13;39.31;50.00
08/11/2020 09:00;1;29;29;37.83;50.00
08/11/2020 09:30;1;30;30;38.43;53.00
08/11/2020 10:00;1;42;42;40.10;52.00
08/11/2020 10:30;1;31;31;38.42;46.00
08/11/2020 11:00;1;43;43;38.81;51.00
08/11/2020 11:30;1;43;43;38.72;53.00
08/11/2020 12:00;1;34;34;40.09;68.00
08/11/2020 12:30;1;53;53;38.25;65.00
08/11/2020 13:00;1;46;46;39.78;58.00
08/11/2020 13:30;1;40;40;38.58;50.00
08/11/2020 14:00;1;49;49;39.29;52.00
08/11/2020 14:30;1;48;48;38.06;47.00
08/11/2020 15:00;1;42;42;39.00;53.00
08/11/2020 15:30;1;42;42;39.24;60.00
08/11/2020 16:00;1;52;52;38.88;52.00
08/11/2020 16:30;1;55;55;38.64;56.00
08/11/2020 17:00;1;49;49;37.92;48.00
08/11/2020 17:30;1;50;50;37.50;48.00
08/11/2020 18:00;1;44;44;38.11;57.00
08/11/2020 18:30;1;45;45;38.22;58.00
08/11/2020 19:00;1;31;31;37.97;56.00
08/11/2020 19:30;1;38;38;37.71;51.00
08/11/2020 20:00;1;33;33;37.00;53.00
08/11/2020 20:30;1;21;21;37.81;52.00
08/11/2020 21:00;1;31;31;42.19;57.00
08/11/2020 21:30;1;14;14;38.79;62.00
08/11/2020 22:00;1;9;9;37.56;51.00
08/11/2020 22:30;1;13;13;38.38;60.00
08/11/2020 23:00;1;8;8;34.50;44.00
08/11/2020 23:30;1;8;8;35.75;45.00
09/11/2020 00:00;1;5;5;40.20;74.00
09/11/2020 00:30;1;1;1;38.00;38.00
09/11/2020 01:30;1;1;1;45.00;45.00
09/11/2020 02:00;1;1;1;43.00;43.00
09/11/2020 02:30;1;3;3;40.00;45.00
09/11/2020 03:30;1;5;5;40.40;46.00
09/11/2020 04:00;1;1;1;39.00;39.00
09/11/2020 04:30;1;8;8;42.50;58.00
09/11/2020 05:00;1;10;10;43.60;52.00
09/11/2020 05:30;1;25;25;39.68;58.00
09/11/2020 06:00;1;41;41;40.80;58.00
09/11/2020 06:30;1;75;75;39.48;58.00
09/11/2020 07:00;1;87;87;38.39;55.00
09/11/2020 07:30;1;123;123;35.67;49.00
09/11/2020 08:00;1;97;97;37.40;55.00
09/11/2020 08:30;1;102;102;37.24;50.00
09/11/2020 09:00;1;84;84;38.45;52.00
09/11/2020 09:30;1;112;112;37.47;50.00
09/11/2020 10:00;1;89;89;38.26;53.00
09/11/2020 10:30;1;85;85;37.46;67.00
09/11/2020 11:00;1;90;90;37.29;48.00
09/11/2020 11:30;1;87;87;37.91;51.00
09/11/2020 12:00;1;71;71;38.11;51.00
09/11/2020 12:30;1;81;81;37.63;53.00
09/11/2020 13:00;1;67;67;36.37;50.00
09/11/2020 13:30;1;84;84;38.93;55.00
09/11/2020 14:00;1;70;70;40.09;60.00
09/11/2020 14:30;1;81;81;37.77;59.00
09/11/2020 15:00;1;77;77;37.29;50.00
09/11/2020 15:30;1;88;88;36.36;51.00
09/11/2020 16:00;1;103;103;37.51;65.00
09/11/2020 16:30;1;67;67;36.58;60.00
09/11/2020 17:00;1;84;84;33.14;58.00
09/11/2020 17:30;1;67;67;35.72;47.00
09/11/2020 18:00;1;89;89;35.21;49.00
09/11/2020 18:30;1;55;55;38.02;49.00
09/11/2020 19:00;1;45;45;38.47;50.00
09/11/2020 19:30;1;36;36;38.19;51.00
09/11/2020 20:00;1;32;32;36.66;58.00
09/11/2020 20:30;1;26;26;38.04;57.00
09/11/2020 21:00;1;22;22;41.82;58.00
09/11/2020 21:30;1;14;14;37.79;47.00
09/11/2020 22:00;1;15;15;38.00;50.00
09/11/2020 22:30;1;13;13;37.38;52.00
09/11/2020 23:00;1;6;6;42.00;60.00
09/11/2020 23:30;1;8;8;38.12;51.00
10/11/2020 00:00;1;1;1;20.00;20.00
10/11/2020 00:30;1;2;2;33.00;33.00
10/11/2020 01:30;1;2;2;36.00;40.00
10/11/2020 02:00;1;2;2;46.50;49.00
10/11/2020 02:30;1;4;4;37.50;46.00
10/11/2020 03:00;1;1;1;48.00;48.00
10/11/2020 03:30;1;2;2;58.50;67.00
10/11/2020 04:00;1;2;2;40.00;48.00
10/11/2020 04:30;1;15;15;43.27;60.00
10/11/2020 05:00;1;11;11;45.91;54.00
10/11/2020 05:30;1;25;25;39.88;59.00
10/11/2020 06:00;1;16;16;39.62;50.00
10/11/2020 06:30;1;71;71;39.30;53.00
10/11/2020 07:00;1;73;73;38.49;54.00
10/11/2020 07:30;1;124;124;37.05;49.00
10/11/2020 08:00;1;100;100;37.35;52.00
10/11/2020 08:30;1;86;86;36.03;53.00
10/11/2020 09:00;1;85;85;37.55;51.00
10/11/2020 09:30;1;96;96;37.33;54.00
10/11/2020 10:00;1;76;76;37.11;52.00
10/11/2020 10:30;1;81;81;37.52;50.00
10/11/2020 11:00;1;70;70;38.16;49.00
10/11/2020 11:30;1;89;89;36.47;61.00
10/11/2020 12:00;1;74;74;37.16;51.00
10/11/2020 12:30;1;71;71;37.68;52.00
10/11/2020 13:00;1;69;69;36.07;51.00
10/11/2020 13:30;1;78;78;37.00;55.00
10/11/2020 14:00;1;59;59;37.85;54.00
10/11/2020 14:30;1;77;77;36.34;53.00
10/11/2020 15:00;1;79;79;36.62;50.00
10/11/2020 15:30;1;77;77;36.10;51.00
10/11/2020 16:00;1;84;84;35.54;52.00
10/11/2020 16:30;1;75;75;34.17;54.00
10/11/2020 17:00;1;80;80;36.05;60.00
10/11/2020 17:30;1;68;68;33.99;48.00
10/11/2020 18:00;1;70;70;35.63;56.00
10/11/2020 18:30;1;71;71;36.94;49.00
10/11/2020 19:00;1;48;48;37.54;58.00
10/11/2020 19:30;1;46;46;33.72;48.00
10/11/2020 20:00;1;38;38;38.29;50.00
10/11/2020 20:30;1;29;29;36.41;55.00
10/11/2020 21:00;1;16;16;42.50;65.00
10/11/2020 21:30;1;17;17;42.47;79.00
10/11/2020 22:00;1;11;11;39.09;44.00
10/11/2020 22:30;1;14;14;41.79;57.00
10/11/2020 23:00;1;5;5;37.20;43.00
10/11/2020 23:30;1;12;12;40.42;61.00
11/11/2020 00:00;1;4;4;47.00;74.00
11/11/2020 00:30;1;3;3;33.33;43.00
11/11/2020 01:00;1;2;2;54.50;66.00
11/11/2020 01:30;1;1;1;33.00;33.00
11/11/2020 02:00;1;2;2;44.50;48.00
11/11/2020 02:30;1;3;3;44.33;47.00
11/11/2020 03:30;1;6;6;43.00;49.00
11/11/2020 04:00;1;3;3;40.67;52.00
11/11/2020 04:30;1;7;7;41.57;55.00
11/11/2020 05:00;1;6;6;39.17;55.00
11/11/2020 05:30;1;31;31;41.68;55.00
11/11/2020 06:00;1;30;30;39.50;66.00
11/11/2020 06:30;1;74;74;39.96;50.00
11/11/2020 07:00;1;83;83;37.39;53.00
11/11/2020 07:30;1;136;136;36.53;54.00
11/11/2020 08:00;1;107;107;37.30;48.00
11/11/2020 08:30;1;82;82;38.59;57.00
11/11/2020 09:00;1;85;85;36.72;55.00
11/11/2020 09:30;1;91;91;37.33;50.00
11/11/2020 10:00;1;85;85;36.66;57.00
11/11/2020 10:30;1;90;90;36.06;50.00
11/11/2020 11:00;1;74;74;35.76;50.00
11/11/2020 11:30;1;90;90;37.19;51.00
11/11/2020 12:00;1;101;101;36.28;52.00
11/11/2020 12:30;1;88;88;36.51;48.00
11/11/2020 13:00;1;84;84;36.56;52.00
11/11/2020 13:30;1;89;89;38.11;53.00
11/11/2020 14:00;1;81;81;37.53;47.00
11/11/2020 14:30;1;68;68;38.09;52.00
11/11/2020 15:00;1;71;71;36.58;48.00
11/11/2020 15:30;1;74;74;36.92;51.00
11/11/2020 16:00;1;93;93;37.72;50.00
11/11/2020 16:30;1;81;81;37.40;57.00
11/11/2020 17:00;1;93;93;35.01;47.00
11/11/2020 17:30;1;83;83;36.72;50.00
11/11/2020 18:00;1;82;82;36.24;48.00
11/11/2020 18:30;1;56;56;38.09;48.00
11/11/2020 19:00;1;40;40;36.95;52.00
11/11/2020 19:30;1;34;34;37.82;60.00
11/11/2020 20:00;1;37;37;39.30;50.00
11/11/2020 20:30;1;24;24;36.46;68.00
11/11/2020 21:00;1;22;22;37.86;63.00
11/11/2020 21:30;1;22;22;37.59;50.00
11/11/2020 22:00;1;20;20;40.90;67.00
11/11/2020 22:30;1;13;13;45.15;82.00
11/11/2020 23:00;1;10;10;37.50;59.00
11/11/2020 23:30;1;4;4;51.25;63.00
12/11/2020 00:00;1;3;3;32.67;45.00
12/11/2020 00:30;1;2;2;39.50;43.00
12/11/2020 01:00;1;2;2;41.50;42.00
12/11/2020 01:30;1;3;3;31.33;34.00
12/11/2020 02:00;1;2;2;42.50;47.00
12/11/2020 02:30;1;4;4;36.25;43.00
12/11/2020 03:30;1;5;5;43.40;49.00
12/11/2020 04:00;1;1;1;48.00;48.00
12/11/2020 04:30;1;10;10;43.50;58.00
12/11/2020 05:00;1;12;12;44.33;64.00
12/11/2020 05:30;1;31;31;40.81;66.00
12/11/2020 06:00;1;35;35;39.00;52.00
12/11/2020 06:30;1;71;71;38.86;51.00
12/11/2020 07:00;1;77;77;38.19;53.00
12/11/2020 07:30;1;110;110;33.68;54.00
12/11/2020 08:00;1;100;100;37.52;58.00
12/11/2020 08:30;1;98;98;36.92;51.00
12/11/2020 09:00;1;99;99;36.35;49.00
12/11/2020 09:30;1;82;82;38.56;49.00
12/11/2020 10:00;1;87;87;37.40;50.00
12/11/2020 10:30;1;98;98;36.97;53.00
12/11/2020 11:00;1;74;74;37.20;48.00
12/11/2020 11:30;1;85;85;34.95;49.00
12/11/2020 12:00;1;72;72;38.36;60.00
12/11/2020 12:30;1;81;81;38.02;50.00
12/11/2020 13:00;1;89;89;37.48;58.00
12/11/2020 13:30;1;95;95;38.62;52.00
12/11/2020 14:00;1;70;70;37.39;54.00
12/11/2020 14:30;1;75;75;37.96;49.00
12/11/2020 15:00;1;81;81;37.70;54.00
12/11/2020 15:30;1;85;85;37.24;56.00
12/11/2020 16:00;1;83;83;37.19;53.00
12/11/2020 16:30;1;85;85;37.35;61.00
12/11/2020 17:00;1;92;92;34.90;49.00
12/11/2020 17:30;1;91;91;36.19;48.00
12/11/2020 18:00;1;86;86;37.65;56.00
12/11/2020 18:30;1;65;65;36.71;51.00
12/11/2020 19:00;1;41;41;37.12;52.00
12/11/2020 19:30;1;49;49;38.84;57.00
12/11/2020 20:00;1;42;42;36.60;58.00
12/11/2020 20:30;1;25;25;36.28;53.00
12/11/2020 21:00;1;15;15;40.53;55.00
12/11/2020 21:30;1;25;25;39.76;61.00
12/11/2020 22:00;1;12;12;38.83;54.00
12/11/2020 22:30;1;11;11;36.45;43.00
12/11/2020 23:00;1;6;6;33.50;41.00
12/11/2020 23:30;1;3;3;37.33;40.00
13/11/2020 00:00;1;4;4;33.75;39.00
13/11/2020 00:30;1;3;3;45.00;54.00
13/11/2020 01:00;1;2;2;33.00;33.00
13/11/2020 01:30;1;2;2;37.00;39.00
13/11/2020 02:00;1;2;2;43.00;46.00
13/11/2020 02:30;1;3;3;46.00;52.00
13/11/2020 03:30;1;3;3;38.33;49.00
13/11/2020 04:00;1;1;1;31.00;31.00
13/11/2020 04:30;1;8;8;42.75;47.00
13/11/2020 05:00;1;9;9;40.89;49.00
13/11/2020 05:30;1;25;25;44.80;63.00
13/11/2020 06:00;1;27;27;40.52;57.00
13/11/2020 06:30;1;75;75;38.55;50.00
13/11/2020 07:00;1;73;73;36.95;50.00
13/11/2020 07:30;1;126;126;36.11;49.00
13/11/2020 08:00;1;83;83;37.67;54.00
13/11/2020 08:30;1;91;91;38.75;53.00
13/11/2020 09:00;1;70;70;37.00;56.00
13/11/2020 09:30;1;87;87;37.02;51.00
13/11/2020 10:00;1;86;86;38.07;53.00
13/11/2020 10:30;1;98;98;37.36;58.00
13/11/2020 11:00;1;99;99;36.59;53.00
13/11/2020 11:30;1;86;86;37.76;55.00
13/11/2020 12:00;1;86;86;36.47;51.00
13/11/2020 12:30;1;80;80;38.12;50.00
13/11/2020 13:00;1;83;83;38.27;73.00
13/11/2020 13:30;1;87;87;38.53;56.00
13/11/2020 14:00;1;75;75;38.83;53.00
13/11/2020 14:30;1;80;80;37.42;52.00
13/11/2020 15:00;1;88;88;37.20;52.00
13/11/2020 15:30;1;75;75;38.07;49.00
13/11/2020 16:00;1;70;70;37.89;66.00
13/11/2020 16:30;1;88;88;35.82;52.00
13/11/2020 17:00;1;74;74;35.97;45.00
13/11/2020 17:30;1;69;69;35.74;49.00
13/11/2020 18:00;1;76;76;35.12;65.00
13/11/2020 18:30;1;66;66;38.20;49.00
13/11/2020 19:00;1;40;40;38.48;56.00
13/11/2020 19:30;1;54;54;38.65;54.00
13/11/2020 20:00;1;38;38;40.42;77.00
13/11/2020 20:30;1;31;31;37.29;51.00
13/11/2020 21:00;1;20;20;40.85;75.00
13/11/2020 21:30;1;21;21;41.71;70.00
13/11/2020 22:00;1;14;14;39.50;66.00
13/11/2020 22:30;1;20;20;38.60;60.00
13/11/2020 23:00;1;12;12;41.67;57.00
13/11/2020 23:30;1;12;12;43.92;55.00
14/11/2020 00:00;1;5;5;34.40;49.00
14/11/2020 00:30;1;4;4;43.25;55.00
14/11/2020 01:00;1;3;3;48.00;57.00
14/11/2020 01:30;1;7;7;41.86;52.00
14/11/2020 02:00;1;1;1;40.00;40.00
14/11/2020 02:30;1;9;9;42.89;50.00
14/11/2020 03:00;1;1;1;50.00;50.00
14/11/2020 03:30;1;3;3;41.67;47.00
14/11/2020 04:00;1;3;3;52.33;75.00
14/11/2020 04:30;1;3;3;42.00;47.00
14/11/2020 05:00;1;10;10;50.00;63.00
14/11/2020 05:30;1;15;15;41.87;61.00
14/11/2020 06:00;1;5;5;48.80;71.00
14/11/2020 06:30;1;26;26;36.77;59.00
14/11/2020 07:00;1;24;24;36.83;46.00
14/11/2020 07:30;1;32;32;39.00;55.00
14/11/2020 08:00;1;41;41;37.32;51.00
14/11/2020 08:30;1;47;47;38.91;53.00
14/11/2020 09:00;1;62;62;37.89;59.00
14/11/2020 09:30;1;73;73;38.44;47.00
14/11/2020 10:00;1;68;68;40.12;54.00
14/11/2020 10:30;1;61;61;36.08;47.00
14/11/2020 11:00;1;91;91;39.01;59.00
14/11/2020 11:30;1;68;68;37.65;48.00
14/11/2020 12:00;1;78;78;38.90;56.00
14/11/2020 12:30;1;65;65;37.98;53.00
14/11/2020 13:00;1;63;63;38.51;48.00
14/11/2020 13:30;1;47;47;39.06;52.00
14/11/2020 14:00;1;64;64;38.17;47.00
14/11/2020 14:30;1;81;81;38.47;49.00
14/11/2020 15:00;1;58;58;38.88;61.00
14/11/2020 15:30;1;76;76;39.89;54.00
14/11/2020 16:00;1;74;74;39.19;58.00
14/11/2020 16:30;1;68;68;36.41;51.00
14/11/2020 17:00;1;78;78;36.77;50.00
14/11/2020 17:30;1;60;60;37.93;50.00
14/11/2020 18:00;1;53;53;38.36;50.00
14/11/2020 18:30;1;56;56;40.18;64.00
14/11/2020 19:00;1;59;59;38.37;70.00
14/11/2020 19:30;1;43;43;39.14;57.00
14/11/2020 20:00;1;47;47;40.34;62.00
14/11/2020 20:30;1;36;36;36.81;61.00
14/11/2020 21:00;1;26;26;38.54;60.00
14/11/2020 21:30;1;21;21;41.76;75.00
14/11/2020 22:00;1;20;20;41.15;62.00
14/11/2020 22:30;1;16;16;35.56;53.00
14/11/2020 23:00;1;9;9;33.56;43.00
14/11/2020 23:30;1;17;17;38.94;64.00
15/11/2020 00:00;1;7;7;45.57;72.00
15/11/2020 00:30;1;14;14;43.86;56.00
15/11/2020 01:00;1;2;2;40.50;43.00
15/11/2020 01:30;1;2;2;27.50;30.00
15/11/2020 02:00;1;4;4;40.75;59.00
15/11/2020 02:30;1;9;9;43.33;60.00
15/11/2020 03:00;1;3;3;38.33;43.00
15/11/2020 03:30;1;3;3;44.00;52.00
15/11/2020 04:00;1;6;6;47.17;60.00
15/11/2020 04:30;1;3;3;38.00;46.00
15/11/2020 05:00;1;2;2;43.00;46.00
15/11/2020 05:30;1;7;7;38.57;48.00
15/11/2020 06:00;1;1;1;34.00;34.00
15/11/2020 06:30;1;8;8;36.50;41.00
15/11/2020 07:00;1;5;5;30.60;43.00
15/11/2020 07:30;1;10;10;39.00;51.00
15/11/2020 08:00;1;16;16;36.94;49.00
15/11/2020 08:30;1;16;16;39.25;52.00
15/11/2020 09:00;1;15;15;40.47;59.00
15/11/2020 09:30;1;28;28;37.46;49.00
15/11/2020 10:00;1;24;24;42.00;67.00
15/11/2020 10:30;1;20;20;37.05;79.00
15/11/2020 11:00;1;34;34;38.35;53.00
15/11/2020 11:30;1;36;36;39.64;59.00
15/11/2020 12:00;1;39;39;38.92;55.00
15/11/2020 12:30;1;45;45;37.76;52.00
15/11/2020 13:00;1;28;28;38.39;66.00
15/11/2020 13:30;1;44;44;42.18;56.00
15/11/2020 14:00;1;57;57;38.18;50.00
15/11/2020 14:30;1;50;50;39.56;69.00
15/11/2020 15:00;1;54;54;38.87;53.00
15/11/2020 15:30;1;63;63;38.05;51.00
15/11/2020 16:00;1;66;66;37.53;55.00
15/11/2020 16:30;1;54;54;38.46;53.00
15/11/2020 17:00;1;61;61;38.74;65.00
15/11/2020 17:30;1;68;68;37.21;54.00
15/11/2020 18:00;1;55;55;38.29;52.00
15/11/2020 18:30;1;49;49;37.98;53.00
15/11/2020 19:00;1;29;29;37.76;61.00
15/11/2020 19:30;1;41;41;39.73;64.00
15/11/2020 20:00;1;39;39;38.64;64.00
15/11/2020 20:30;1;21;21;36.38;57.00
15/11/2020 21:00;1;16;16;39.94;82.00
15/11/2020 21:30;1;20;20;38.70;65.00
15/11/2020 22:00;1;16;16;44.00;68.00
15/11/2020 22:30;1;16;16;40.00;66.00
15/11/2020 23:00;1;4;4;38.25;44.00
15/11/2020 23:30;1;13;13;37.23;66.00
16/11/2020 00:00;1;2;2;42.50;50.00
16/11/2020 00:30;1;4;4;38.75;51.00
16/11/2020 01:30;1;1;1;45.00;45.00
16/11/2020 02:00;1;1;1;49.00;49.00
16/11/2020 02:30;1;1;1;27.00;27.00
16/11/2020 03:30;1;4;4;41.00;45.00
16/11/2020 04:00;1;3;3;41.00;46.00
16/11/2020 04:30;1;8;8;42.75;48.00
16/11/2020 05:00;1;9;9;42.44;53.00
16/11/2020 05:30;1;26;26;40.81;50.00
16/11/2020 06:00;1;28;28;40.82;61.00
16/11/2020 06:30;1;74;74;38.20;53.00
16/11/2020 07:00;1;91;91;37.07;48.00
16/11/2020 07:30;1;119;119;35.50;52.00